Location: ???????
(55.3754°N, 39.3545°E)
Time: 22:39:02
(UTC+00:00)

Cosmos 2228 - Pass Details

Date: 14 April 2026
Orbit: 561 x 588 km, 82.5° (Epoch: 13 May)

Event Time Altitude Azimuth Distance (km) Brightness Sun altitude
Exits shadow 21:15:56 32° 77° (ENE) 1,020 4.2 -25.0°
Drops below altitude 10° 21:19:14 10° 27° (NNE) 1,911 6.4 -25.0°
Sets 21:21:35 0° 18° (NNE) 2,810 7.6 -25.0°
